This is the latest recevied weather packets stored in our database for station/object DB7GV-8. If no packets are shown the sender has not sent any weather packets the latest 10 day(s).
| Time | Temp. | Humidity | Pressure | Rain* | Wind** | Luminosity | Snow |
|---|---|---|---|---|---|---|---|
| 1777868849 | 9.44° C | 81% | 1016 hPa | - | - | - | - |
| 1777867943 | 9.44° C | 81% | 1016.1 hPa | - | - | - | - |
| 1777867038 | 10° C | 80% | 1016 hPa | - | - | - | - |
| 1777866133 | 10° C | 80% | 1016.2 hPa | - | - | - | - |
| 1777865227 | 10° C | 79% | 1016.4 hPa | - | - | - | - |
| 1777864322 | 9.44° C | 79% | 1016.5 hPa | - | - | - | - |
| 1777863417 | 9.44° C | 79% | 1016.5 hPa | - | - | - | - |
| 1777861606 | 10° C | 79% | 1016.6 hPa | - | - | - | - |
| 1777860701 | 10° C | 79% | 1016.6 hPa | - | - | - | - |
| 1777859794 | 10° C | 79% | 1016.5 hPa | - | - | - | - |
| 1777858889 | 10° C | 78% | 1016.5 hPa | - | - | - | - |
| 1777857984 | 10.56° C | 78% | 1016.4 hPa | - | - | - | - |
| 1777857078 | 11.11° C | 78% | 1016.4 hPa | - | - | - | - |
| 1777856173 | 11.11° C | 78% | 1016.4 hPa | - | - | - | - |
| 1777855268 | 11.67° C | 78% | 1016.4 hPa | - | - | - | - |
| 1777854362 | 12.22° C | 78% | 1016.5 hPa | - | - | - | - |
| 1777853457 | 12.78° C | 77% | 1016.6 hPa | - | - | - | - |
| 1777852552 | 12.78° C | 77% | 1016.5 hPa | - | - | - | - |
| 1777851646 | 12.78° C | 76% | 1016.5 hPa | - | - | - | - |
| 1777850741 | 12.78° C | 76% | 1016.6 hPa | - | - | - | - |
| 1777849835 | 12.78° C | 76% | 1016.7 hPa | - | - | - | - |
| 1777848930 | 12.78° C | 75% | 1016.7 hPa | - | - | - | - |
| 1777848025 | 13.33° C | 74% | 1016.5 hPa | - | - | - | - |
| 1777847119 | 13.33° C | 74% | 1016.2 hPa | - | - | - | - |
| 1777846214 | 13.33° C | 73% | 1016.3 hPa | - | - | - | - |
* Rain since midnight (hover to see other rain measurements)
** Current wind speed in m/s (hover to see current wind gust speed)